DECAYED

STARLINK-1206, 45204 (Decayed)

Orbit data source: Space-Track

STARLINK-1206, 45204 was a payload satellite owned by SpaceX/Seattle (US) in LEO that was launched on Mon, 17 Feb 2020 UTC via an FALCON 9 launch vehicle from the Air Force Eastern Test Range (AFETR). Payload-class satellites include a variety of spacecraft equipped with specific instruments for various scientific and technological missions. These include communications satellites like Starlink; space stations such as the ISS; scientific satellites like the Hubble; Earth observation satellites from companies like Planet Labs, Umbra, and HawkEye 360; GPS; miniature CubeSats for education and research; and military/defense satellites.

Not visible in the next 10 days
Identifier
45204, 2020-012AC
Orbit
Decayed
Country
Flag of USUS
Related business
Manufacturer
SpaceX/Seattle
Mission
Decayed Commercial Communications
Bus & Motor
STARLINK, Unknown motor
Mass
260 kg wet, ~248 kg dry
Launch date (UTC)
2020-02-17 (7 years ago)
Launch vehicle
FALCON 9
Launch site
Air Force Eastern Test Range (AFETR)
Object type
Payload
Rocket body
Debris
Shape & HBR
Box + 1 Pan, 10.1 m
Radar Cross Section
13.562 m², Large (>1 m²)

Expand to show TLE details & history
Last TLE update: 1 year ago

TLE from 1 year ago
0 STARLINK-1206
1 45204U 20012AC  25268.61836184  .10614611  12623-4  31586-3 0  9994
2 45204  53.0166 348.0203 0008596  21.9624 338.1791 16.44542577311080
Epoch: 2025-09-25T14:50Z
TLE epoch observation values (Epoch: 2025-09-25T14:50:26.462Z)
Latitude
-0.00003°
Longitude
120.73311°
Altitude
149.462 km
Speed
7.821 km/s
True Right ascension
23h 12m 04s
True Declination
0° 00' 00"
Sunlit
Object was in full shadow at epoch
Visualization orbit readout
Latitude
Unknown
Longitude
Unknown
Altitude
Unknown
Speed
Unknown
Apparent Right ascension
Unknown
Apparent Declination
Unknown
Sunlit
N/A
Visualization observer readout
Local Sidereal Time
23:19:55
Azimuth
Unknown
Elevation
Unknown
Doppler factor
Unknown
Orbital elements
Apogee altitude
159.654 km
Perigee altitude
148.424 km
Semi-major axis
6,532.176 km
Eccentricity
0.00086
Inclination
53.0166°
RAAN
348.0203°
Arg. of periapsis
21.9624°
True anomaly
338.14245°
Mean anomaly
338.1791°
Eccentric anomaly
338.16078°
Mean motion
4.11108 °/min
Orbital period
87.57 mins
BSTAR
0.00031586
Loading maneuver chart data...
Computing Atmospheric mass density...
Loading historical data...
Loading historical data...
Loading historical data...
Loading historical data...
Loading historical data...
Loading historical data...
Loading historical data...

Documentation

Showing up to 5 results
|